Location: Torrington
(42.0650°N, 104.1810°W)
Time: 12:55:53
(UTC-06:00)

Daily predictions for brighter satellites

Satellite Brightness Start Highest point End
(mag) Time Altitude Azimuth Time Altitude Azimuth Time Altitude Azimuth
NOSS 3-2 (C) 3.8 19:01:14 10° S 19:06:55 44° ESE 19:13:02 10° NE
Meteor 1-24 Rocket 3.7 19:03:28 10° N 19:09:06 66° ENE 19:14:30 10° SSE
COSMOS 2441 4.5 19:04:29 10° SSE 19:09:22 86° WSW 19:14:14 10° NNW
Cosmos 2369 Rocket 4.0 19:07:33 10° NNE 19:10:21 14° NE 19:13:08 10° ENE
Cosmos 2056 Rocket 3.6 19:04:53 10° NNW 19:10:21 79° ENE 19:15:45 10° SSE
Meteor 2-5 Rocket 4.2 19:07:20 10° NNW 19:12:55 67° W 19:18:23 10° S
Cosmos 2346 Rocket 4.5 19:11:02 10° N 19:17:08 89° W 19:23:11 10° S
SJ-6B 2.9 19:14:23 10° SSE 19:18:17 59° ENE 19:22:18 10° N
COSMO-SKYMED 1 3.0 19:17:07 10° N 19:21:27 70° WNW 19:25:46 10° SSW
HJ-1C 4.0 19:25:08 10° SE 19:28:15 36° ENE 19:31:23 10° N
Cosmos 1758 4.0 19:25:32 10° SSE 19:29:13 34° E 19:32:56 10° NNE
Cosmos 2333 Rocket 3.8 19:24:32 10° SW 19:29:52 38° WNW 19:35:13 10° N
Cosmos 192 4.3 19:25:30 10° S 19:30:23 64° ESE 19:35:19 10° NNE
Spot 1 4.3 19:26:12 10° SSE 19:30:49 56° ENE 19:35:13 10° N
NOAA 12 4.1 19:27:34 10° SSE 19:32:48 79° ENE 19:38:06 10° N
ISS -1.1 19:32:11 10° SSE 19:33:11 11° SE 19:33:16 11° SE
Aureole 2 Rocket 3.2 19:29:33 10° SSW 19:33:56 78° WNW 19:38:14 10° NNE
Timation 1 Rocket 4.3 19:28:32 10° NNW 19:34:32 83° ENE 19:40:30 10° SSE
Cosmos 1674 4.3 19:32:39 10° NNE 19:35:19 17° ENE 19:36:37 15° E
SAR-Lupe-1 4.3 19:32:57 10° S 19:36:30 74° WSW 19:40:05 10° NNW
Cosmos 1484 Rocket 4.2 19:33:10 10° S 19:36:48 41° W 19:40:31 10° NNW
OAO 3 Rocket 4.1 19:32:44 10° WSW 19:37:02 35° S 19:40:37 14° ESE
In-Cosmos 22 4.3 19:32:11 10° N 19:37:55 61° ENE 19:43:35 10° SSE
FengYun 1-2 T 4.5 19:33:37 10° SE 19:38:52 48° ENE 19:44:07 10° N
Cosmos 1766 Rocket 3.5 19:36:51 10° N 19:41:12 61° E 19:45:29 10° SSE
USA 215 3.3 19:36:58 10° NE 19:43:27 61° SE 19:49:52 10° SSW
Meteor 1-29 3.3 19:42:56 10° NNE 19:46:18 42° E 19:49:38 10° S
ALOS 2.8 19:43:12 10° SE 19:47:30 39° ENE 19:51:51 10° N
Helios 1B rocket 2.4 19:44:13 10° NNE 19:48:17 58° E 19:52:19 10° S
Cosmos 1076 Rocket 3.6 19:47:47 10° N 19:52:07 82° W 19:56:28 10° S
Cosmos 2237 Rocket 4.2 19:48:08 10° WSW 19:53:04 30° NW 19:58:01 10° N
CZ-4C R/B 4.0 19:49:10 10° WSW 19:54:03 32° NW 19:59:30 10° NNE
Cosmos 2034 Rocket 3.9 19:49:36 10° S 19:55:50 75° E 20:02:10 10° N
Meteor 1-21 Rocket 4.2 19:50:20 10° N 19:55:52 63° ENE 20:01:20 10° SSE
ATLAS 5 CENTAUR R/B 1.8 19:51:34 10° SSW 19:56:19 84° ESE 20:01:31 10° NE
SeaSat 1 3.5 19:52:54 10° NE 19:56:48 23° ESE 20:00:41 10° SSE
Cosmos 1766 4.4 19:53:28 10° SSW 19:57:17 47° W 20:01:10 10° N
Cosmos 1464 Rocket 4.1 19:51:24 10° S 19:57:39 80° W 20:03:52 10° N
CZ-4B DEB 3.2 19:57:06 27° ESE 19:58:23 40° ENE 20:01:29 10° N
Cosmos-2242 2.9 19:54:23 10° S 19:58:41 67° E 20:03:04 10° NNE
FREGAT/IRIS 4.2 20:00:56 10° SSW 20:03:50 37° W 20:06:46 10° NNW
Cosmos 1452 Rocket 3.6 20:01:39 10° NNW 20:06:55 78° WSW 20:12:09 10° SSE
ATLAS CENTAUR R/B 4.2 20:07:19 10° WNW 20:09:33 14° WSW 20:11:41 10° SW
Cosmos 2151 4.3 20:07:17 10° NNE 20:09:57 22° ENE 20:09:57 22° ENE
CZ-2D R/B 3.4 20:09:16 29° SE 20:10:55 51° ENE 20:14:43 10° N
SL-16 R/B 3.4 20:07:37 10° SW 20:13:02 44° WNW 20:18:29 10° NNE
Cosmos 1842 Rocket 3.7 20:10:05 10° SSE 20:14:12 46° E 20:18:22 10° NNE
Cosmos 1500 Rocket 3.7 20:10:32 10° N 20:14:51 49° E 20:16:34 32° SE
Cosmos 1408 Rocket 4.4 20:10:37 10° NNW 20:14:51 52° W 20:19:02 10° S
Cosmos 1544 3.0 20:13:00 10° S 20:16:44 85° E 20:20:30 10° N
SL-8 R/B 3.8 20:14:06 10° SW 20:18:43 51° SE 20:20:05 38° E
NOSS 3-2 (A) 4.3 20:13:17 10° SW 20:19:14 53° NW 20:25:47 10° NNE
Cosmos 1953 3.1 20:19:15 10° SSW 20:23:09 52° W 20:27:03 10° N
H-2A R/B 2.6 20:25:26 39° SSE 20:26:47 79° ENE 20:30:41 10° N
Cosmos 1805 4.3 20:23:44 10° SSW 20:27:31 46° WNW 20:31:21 10° N
Cosmos 1420 Rocket 4.0 20:23:39 10° NNW 20:28:59 89° WSW 20:32:19 24° SSE
Gbstr 26 Del rocket 3.9 20:24:54 10° SSW 20:28:30 35° SSE 20:28:30 35° SSE
Resurs 1-3 4.5 20:28:16 10° S 20:32:31 49° W 20:36:47 10° NNW
Cosmos 1346 4.0 20:30:03 10° NNW 20:32:56 46° W 20:33:27 40° SW
Abrixas 4.0 20:30:15 10° SW 20:31:53 28° SW 20:31:53 28° SW
Resurs 01 Rocket 3.1 20:29:29 10° SSW 20:33:36 37° W 20:37:46 10° NNW
FENGYUN 3A 3.7 20:29:30 10° S 20:34:52 77° WSW 20:40:18 10° NNW
ATLAS CENTAUR R/B 4.3 20:29:35 10° WSW 20:35:25 68° NNW 20:55:13 10° NE
ASTEX 1 3.3 20:32:33 10° N 20:37:29 85° W 20:42:22 10° S
Cosmos 1743 Rocket 4.2 20:38:59 10° NNW 20:43:20 55° W 20:46:46 15° SSW
Cosmos 1269 Rocket 4.3 20:41:29 10° SSW 20:46:45 69° WNW 20:52:02 10° NNE
Cosmos 1048 Rocket 4.1 20:43:08 10° SSW 20:48:27 78° WNW 20:53:43 10° NNE
Cosmos 1470 3.0 20:49:04 47° SW 20:50:01 67° W 20:53:54 10° N
CENTAUR R/B 2.4 20:47:07 10° SSW 20:53:04 67° ESE 20:59:48 10° NE
Cosmos 2369 Rocket 2.1 20:49:41 10° NNW 20:55:22 76° ENE 20:56:06 65° ESE
Envisat 3.5 20:56:31 43° NE 20:56:31 43° NE 21:00:30 10° N
Cosmos 1943 3.0 20:50:24 10° SSW 20:56:00 73° ESE 21:01:38 10° NNE
Cosmos 1733 4.4 20:59:28 38° NNW 20:59:28 38° NNW 21:02:00 10° N
Cosmos 1943 Rocket 3.0 20:53:43 10° N 20:58:11 35° NE 20:58:11 35° NE
Cosmos 2263 4.2 20:54:32 10° NNW 21:00:17 61° ENE 21:00:19 61° ENE
GP-B 3.2 20:56:41 10° N 21:01:03 76° WNW 21:01:03 76° WNW
Cosmos 2279 Rocket 4.2 21:07:31 52° NE 21:07:31 52° NE 21:12:34 10° NNE
BREEZE-M DEB (TANK) 3.2 20:57:03 10° WNW 21:07:21 68° N 21:07:42 66° NE
ISS -0.2 21:05:57 10° SW 21:06:00 10° SW 21:06:00 10° SW
Cosmos 1674 4.4 21:07:34 10° NNW 21:11:01 31° W 21:11:36 30° WSW
Cosmos 1655 Rocket 3.8 21:04:53 10° N 21:11:08 76° E 21:11:27 74° ESE
H-2A R/B 4.3 21:26:04 18° N 21:26:04 18° N 21:27:22 10° N
USA 215 4.1 21:20:58 14° NE 21:26:19 47° NNW 21:32:29 10° W
Cosmos 2026 Rocket 4.0 21:20:53 10° N 21:26:58 75° W 21:27:33 69° SW
Meteor 1-11 4.4 21:24:25 10° NNW 21:29:58 72° WNW 21:29:58 72° WNW
ERS-1 Rocket 3.7 21:35:09 49° NW 21:35:09 49° NW 21:38:59 10° NNW
SeaSat 1 3.3 21:29:46 10° NNE 21:34:31 48° WNW 21:39:14 10° SW
UNK 4.5 21:24:10 10° WNW 21:40:47 63° NNE 21:41:04 62° NNE
ATLAS 5 CENTAUR R/B 4.4 21:38:11 10° W 21:41:46 19° NNW 21:45:33 10° NNE
Cosmos 1943 Rocket 4.4 22:37:37 10° NW 22:39:43 21° WNW 22:39:43 21° WNW
CENTAUR R/B 4.2 22:38:51 10° W 22:44:20 30° NW 22:50:26 10° NNE
